GW3407 Weather Reports


time (UTC)temp
C
wind
direction
speed
KPH
gust
KPH
rain 1hr
cm
rain 24hr
cm
rain mn
cm
humidity
%
barometer
mb
20260508111433 1 121 0.0 4.8 0.00 0.00 0.00 99 1015.2
20260508110930 1 114 0.0 3.2 0.00 0.00 0.00 99 1015.2
20260508110428 1 53 0.0 3.2 0.00 0.00 0.00 99 1015.3
20260508105927 1 165 0.0 3.2 0.00 0.00 0.00 99 1015.3
20260508105424 1 214 0.0 3.2 0.00 0.00 0.00 99 1015.0
20260508104921 1 175 0.0 3.2 0.00 0.00 0.00 99 1015.3
20260508104419 1 285 1.6 3.2 0.00 0.00 0.00 99 1015.1
20260508103916 1 157 1.6 6.4 0.00 0.00 0.00 99 1015.2
20260508103413 1 168 1.6 4.8 0.00 0.00 0.00 99 1015.2
20260508102910 0 165 0.0 3.2 0.00 0.00 0.00 99 1014.9
20260508102408 1 212 1.6 3.2 0.00 0.00 0.00 99 1014.8
20260508101905 1 140 1.6 4.8 0.00 0.00 0.00 99 1014.8
20260508101402 0 172 3.2 4.8 0.00 0.00 0.00 99 1014.9
20260508100859 0 243 0.0 3.2 0.00 0.00 0.00 99 1014.9
20260508100358 1 254 0.0 4.8 0.00 0.00 0.00 99 1014.7
20260508095853 1 123 1.6 3.2 0.00 0.00 0.00 99 1014.7
20260508095352 1 135 4.8 4.8 0.00 0.00 0.00 99 1014.4
20260508094848 1 163 3.2 3.2 0.00 0.00 0.00 99 1014.7
20260508094345 1 141 6.4 6.4 0.00 0.00 0.00 99 1014.6
20260508093842 1 145 1.6 6.4 0.00 0.00 0.00 99 1014.7
20260508093339 1 156 3.2 4.8 0.00 0.00 0.00 99 1014.5
20260508092837 1 185 1.6 4.8 0.00 0.00 0.00 99 1014.6
20260508092335 1 162 0.0 4.8 0.00 0.00 0.00 99 1014.6
20260508091833 1 123 1.6 3.2 0.00 0.00 0.00 99 1014.9
20260508091329 1 208 0.0 3.2 0.00 0.00 0.00 99 1014.7
20260508090827 1 113 3.2 4.8 0.00 0.00 0.00 99 1014.4
20260508090325 1 175 1.6 3.2 0.00 0.00 0.00 99 1014.7
20260508085820 1 90 1.6 3.2 0.00 0.00 0.00 99 1014.5
20260508085318 1 212 1.6 3.2 0.00 0.00 0.00 99 1014.4
20260508084814 1 148 0.0 3.2 0.00 0.00 0.00 99 1014.4
20260508084311 1 109 0.0 3.2 0.00 0.00 0.00 99 1014.3
20260508083809 1 157 1.6 4.8 0.00 0.00 0.00 99 1014.4
20260508083306 1 187 1.6 4.8 0.00 0.00 0.00 99 1014.4
20260508082805 1 117 1.6 4.8 0.00 0.00 0.00 99 1014.4
20260508082306 1 202 0.0 3.2 0.00 0.00 0.00 99 1014.2
20260508081801 1 195 0.0 3.2 0.00 0.00 0.00 99 1014.4
20260508081257 1 154 3.2 4.8 0.00 0.00 0.00 99 1014.4
20260508080754 1 124 0.0 4.8 0.00 0.00 0.00 99 1014.3
20260508080252 1 188 0.0 4.8 0.00 0.00 0.00 99 1014.3
20260508075748 1 175 1.6 4.8 0.00 0.00 0.00 99 1014.4
20260508075245 1 159 0.0 4.8 0.00 0.00 0.00 99 1014.4
20260508074743 1 249 1.6 3.2 0.00 0.00 0.00 99 1014.4
20260508074240 1 168 0.0 4.8 0.00 0.00 0.00 99 1014.1
20260508073737 1 123 0.0 3.2 0.00 0.00 0.00 99 1014.4
20260508073235 1 151 0.0 4.8 0.00 0.00 0.00 99 1014.4
20260508072731 1 165 3.2 4.8 0.00 0.00 0.00 99 1014.3
20260508072228 1 156 0.0 4.8 0.00 0.00 0.00 99 1014.4
20260508071726 1 194 0.0 4.8 0.00 0.00 0.00 99 1014.1
20260508071224 1 144 3.2 3.2 0.00 0.00 0.00 99 1014.3
20260508070721 2 150 3.2 3.2 0.00 0.00 0.00 99 1014.2
20260508070219 2 180 0.0 4.8 0.00 0.00 0.00 99 1014.1
20260508065716 2 265 0.0 3.2 0.00 0.00 0.00 99 1014.4
20260508065214 2 246 0.0 4.8 0.00 0.00 0.00 99 1014.4
20260508064711 2 212 1.6 3.2 0.00 0.00 0.00 99 1014.4
20260508064209 2 90 0.0 3.2 0.00 0.00 0.00 99 1014.6
20260508063707 2 144 3.2 4.8 0.00 0.00 0.00 99 1014.6
20260508063204 2 161 4.8 4.8 0.00 0.00 0.00 99 1014.6
20260508062701 2 150 0.0 4.8 0.00 0.00 0.00 99 1014.6
20260508062158 2 108 3.2 4.8 0.00 0.00 0.00 98 1014.6
20260508061655 2 216 0.0 4.8 0.00 0.00 0.00 99 1014.6
20260508061153 2 243 3.2 6.4 0.00 0.00 0.00 98 1014.3
20260508060649 2 210 3.2 4.8 0.00 0.00 0.00 98 1014.4
20260508060147 2 175 3.2 3.2 0.00 0.00 0.00 98 1014.5
20260508055642 2 157 0.0 4.8 0.00 0.00 0.00 98 1014.3
20260508055139 2 200 1.6 4.8 0.00 0.00 0.00 98 1014.3
20260508054636 2 162 0.0 4.8 0.00 0.00 0.00 98 1014.3
20260508054134 2 165 3.2 6.4 0.00 0.00 0.00 98 1014.4
20260508053630 2 148 1.6 3.2 0.00 0.00 0.00 97 1014.4
20260508053128 2 265 3.2 4.8 0.00 0.00 0.00 97 1014.4
20260508052625 3 140 1.6 3.2 0.00 0.00 0.00 97 1014.7
20260508052122 3 165 3.2 4.8 0.00 0.00 0.00 97 1014.6
20260508051618 3 239 3.2 4.8 0.00 0.00 0.00 97 1014.7
20260508051113 3 188 3.2 4.8 0.00 0.00 0.00 97 1014.9
20260508050610 3 151 0.0 4.8 0.00 0.00 0.00 97 1014.7
20260508050108 3 139 3.2 3.2 0.00 0.00 0.00 96 1014.7
20260508045604 3 154 3.2 3.2 0.00 0.00 0.00 96 1014.8
20260508045102 3 151 0.0 4.8 0.00 0.00 0.00 96 1014.6
20260508044559 3 166 0.0 4.8 0.00 0.00 0.00 96 1014.6
20260508044055 3 180 0.0 3.2 0.00 0.00 0.00 96 1014.6
20260508043551 3 192 1.6 3.2 0.00 0.00 0.00 95 1014.6
20260508043049 3 194 0.0 3.2 0.00 0.00 0.00 95 1014.6
20260508042545 3 191 0.0 4.8 0.00 0.00 0.00 94 1014.5
20260508042043 3 164 3.2 4.8 0.00 0.00 0.00 94 1014.4
20260508041539 3 200 0.0 3.2 0.00 0.00 0.00 93 1014.6
20260508041035 4 165 0.0 3.2 0.00 0.00 0.00 93 1014.4
20260508040532 4 127 3.2 3.2 0.00 0.00 0.00 93 1014.6
20260508040030 5 180 0.0 4.8 0.00 0.00 0.00 92 1014.6
20260508035527 5 202 0.0 4.8 0.00 0.00 0.00 92 1014.6
20260508035024 5 195 0.0 4.8 0.00 0.00 0.00 92 1014.7
20260508034521 5 160 1.6 4.8 0.00 0.00 0.00 91 1014.5
20260508034018 5 119 0.0 4.8 0.00 0.00 0.00 91 1014.5
20260508033516 5 127 3.2 3.2 0.00 0.00 0.00 90 1014.5
20260508033014 5 145 0.0 4.8 0.00 0.00 0.00 91 1014.4
20260508032510 5 133 4.8 4.8 0.00 0.00 0.00 91 1014.5
20260508032008 5 139 3.2 4.8 0.00 0.00 0.00 90 1014.4
20260508031505 5 126 1.6 6.4 0.00 0.00 0.00 90 1014.6
20260508030959 5 146 3.2 6.4 0.00 0.00 0.00 89 1014.4
20260508030457 5 160 0.0 3.2 0.00 0.00 0.00 90 1014.5
20260508025955 5 183 3.2 4.8 0.00 0.00 0.00 89 1014.4
20260508025451 5 180 0.0 4.8 0.00 0.00 0.00 90 1014.6
20260508024948 5 150 3.2 3.2 0.00 0.00 0.00 90 1014.3
20260508024444 5 98 0.0 4.8 0.00 0.00 0.00 89 1014.3
20260508023941 5 184 3.2 3.2 0.00 0.00 0.00 89 1014.2
20260508023438 6 83 1.6 4.8 0.00 0.00 0.00 89 1014.2
20260508022935 5 74 0.0 3.2 0.00 0.00 0.00 87 1014.4
20260508022430 6 131 0.0 3.2 0.00 0.00 0.00 87 1014.1
20260508021927 6 148 0.0 3.2 0.00 0.00 0.00 86 1014.0
20260508021424 6 209 0.0 3.2 0.00 0.00 0.00 86 1014.1
20260508020919 6 221 3.2 4.8 0.00 0.00 0.00 86 1014.1
20260508020418 6 200 1.6 4.8 0.00 0.00 0.00 86 1014.1
20260508015914 6 168 1.6 3.2 0.00 0.00 0.00 84 1013.8
20260508015412 6 63 0.0 4.8 0.00 0.00 0.00 84 1013.8
20260508014908 7 180 0.0 3.2 0.00 0.00 0.00 84 1013.7
20260508014406 7 117 0.0 3.2 0.00 0.00 0.00 82 1013.6
20260508013902 7 180 0.0 3.2 0.00 0.00 0.00 82 1013.6
20260508013357 7 114 1.6 3.2 0.00 0.00 0.00 81 1013.7
20260508012855 7 265 0.0 4.8 0.00 0.00 0.00 79 1013.5
20260508012352 8 157 0.0 3.2 0.00 0.00 0.00 78 1013.5
20260508011850 8 255 1.6 3.2 0.00 0.00 0.00 77 1013.4
20260508011348 8 331 1.6 4.8 0.00 0.00 0.00 75 1013.2
20260508010844 8 201 0.0 3.2 0.00 0.00 0.00 74 1013.1
20260508010342 9 254 0.0 3.2 0.00 0.00 0.00 72 1012.9
20260508005839 9 277 1.6 1.6 0.00 0.00 0.00 72 1012.9
20260508005335 9 172 0.0 3.2 0.00 0.00 0.00 70 1013.0
20260508004831 9 188 0.0 3.2 0.00 0.00 0.00 72 1013.0
20260508004328 10 23 0.0 3.2 0.00 0.00 0.00 70 1012.9
20260508003824 10 8 0.0 1.6 0.00 0.00 0.00 68 1012.8
20260508003322 11 258 0.0 4.8 0.00 0.00 0.00 64 1012.7
20260508002819 11 246 3.2 4.8 0.00 0.00 0.00 59 1012.6
20260508002315 12 240 0.0 4.8 0.00 0.00 0.00 54 1012.5
20260508001811 12 250 0.0 4.8 0.00 0.00 0.00 55 1012.7
20260508001308 12 276 3.2 4.8 0.00 0.00 0.00 53 1012.6
20260508000804 13 264 3.2 4.8 0.00 0.00 0.00 51 1012.6
20260508000301 13 322 3.2 8.0 0.00 0.00 0.00 46 1012.5
20260507235757 14 263 6.4 9.7 0.00 0.00 0.00 47 1012.4
20260507235255 14 275 3.2 3.2 0.00 0.00 0.00 46 1012.6
20260507234751 15 255 3.2 11.3 0.00 0.00 0.00 44 1012.5
20260507234248 15 304 6.4 8.0 0.00 0.00 0.00 42 1012.3
20260507233744 15 270 4.8 11.3 0.00 0.00 0.00 44 1012.1
20260507233242 15 16 0.0 4.8 0.00 0.00 0.00 46 1012.0
20260507232740 15 71 0.0 3.2 0.00 0.00 0.00 49 1012.2
20260507232236 15 292 3.2 6.4 0.00 0.00 0.00 43 1012.1
20260507231733 15 286 3.2 6.4 0.00 0.00 0.00 45 1012.2
20260507231230 16 300 4.8 9.7 0.00 0.00 0.00 39 1012.4
20260507230726 16 297 4.8 9.7 0.00 0.00 0.00 42 1012.1
20260507230224 16 319 4.8 11.3 0.00 0.00 0.00 43 1012.1
20260507225723 17 277 0.0 4.8 0.00 0.00 0.00 38 1011.9
20260507225220 16 276 1.6 4.8 0.00 0.00 0.00 44 1012.0
20260507224716 16 90 3.2 8.0 0.00 0.00 0.00 44 1011.9
20260507224213 16 8 0.0 14.5 0.00 0.00 0.00 41 1011.8
20260507223709 16 268 9.7 17.7 0.00 0.00 0.00 41 1011.8
20260507223206 16 266 4.8 12.9 0.00 0.00 0.00 38 1011.9
20260507222703 16 281 4.8 11.3 0.00 0.00 0.00 40 1012.0
20260507222159 17 337 4.8 8.0 0.00 0.00 0.00 44 1011.8
20260507221656 17 325 1.6 14.5 0.00 0.00 0.00 41 1011.7
20260507221152 16 303 6.4 8.0 0.00 0.00 0.00 41 1011.5
20260507220649 17 335 0.0 8.0 0.00 0.00 0.00 43 1011.6
20260507220147 17 335 4.8 9.7 0.00 0.00 0.00 42 1011.5
20260507215643 17 279 4.8 11.3 0.00 0.00 0.00 45 1011.5
20260507215140 16 303 4.8 8.0 0.00 0.00 0.00 45 1011.5
20260507214637 17 287 3.2 8.0 0.00 0.00 0.00 42 1011.4
20260507214134 17 270 6.4 11.3 0.00 0.00 0.00 47 1011.3
20260507213630 18 283 3.2 6.4 0.00 0.00 0.00 44 1011.3
20260507213127 17 293 3.2 8.0 0.00 0.00 0.00 42 1011.3
20260507212623 17 254 3.2 11.3 0.00 0.00 0.00 43 1011.3
20260507212120 17 340 1.6 4.8 0.00 0.00 0.00 46 1011.4
20260507211617 18 345 0.0 4.8 0.00 0.00 0.00 42 1011.0
20260507211113 18 202 6.4 9.7 0.00 0.00 0.00 43 1010.9
20260507210611 18 305 0.0 14.5 0.00 0.00 0.00 45 1011.0
20260507210107 19 79 8.0 12.9 0.00 0.00 0.00 46 1011.0
20260507205603 19 280 4.8 9.7 0.00 0.00 0.00 42 1011.1
20260507205100 17 249 4.8 6.4 0.00 0.00 0.00 46 1011.0
20260507204556 17 309 3.2 6.4 0.00 0.00 0.00 49 1011.0
20260507204054 18 346 1.6 6.4 0.00 0.00 0.00 47 1010.9
20260507203552 18 264 3.2 6.4 0.00 0.00 0.00 45 1011.0
20260507203049 18 278 8.0 12.9 0.00 0.00 0.00 47 1010.8
20260507202544 18 270 6.4 11.3 0.00 0.00 0.00 43 1011.0
20260507202041 18 357 4.8 4.8 0.00 0.00 0.00 46 1010.7
20260507201536 17 286 3.2 8.0 0.00 0.00 0.00 45 1010.9
20260507201033 17 279 4.8 12.9 0.00 0.00 0.00 41 1011.1
20260507200529 17 287 0.0 17.7 0.00 0.00 0.00 44 1010.8
20260507200025 17 276 1.6 8.0 0.00 0.00 0.00 43 1011.1
20260507195522 18 22 3.2 11.3 0.00 0.00 0.00 44 1011.2
20260507195020 17 139 3.2 8.0 0.00 0.00 0.00 45 1011.1
20260507194516 18 259 6.4 9.7 0.00 0.00 0.00 41 1011.0
20260507194012 19 20 4.8 9.7 0.00 0.00 0.00 54 1011.3
20260507193509 18 262 9.7 11.3 0.00 0.00 0.00 43 1011.3
20260507193006 18 308 4.8 9.7 0.00 0.00 0.00 44 1011.1
20260507192502 18 323 6.4 8.0 0.00 0.00 0.00 47 1011.2
20260507191959 17 35 1.6 4.8 0.00 0.00 0.00 51 1011.4
20260507191454 17 222 0.0 8.0 0.00 0.00 0.00 45 1011.6
20260507190952 18 288 4.8 9.7 0.00 0.00 0.00 42 1011.6
20260507190449 17 281 0.0 20.9 0.00 0.00 0.00 45 1011.4
20260507185948 17 259 6.4 27.4 0.00 0.00 0.00 42 1011.7
20260507185445 18 260 0.0 9.7 0.00 0.00 0.00 49 1011.6
20260507184942 17 289 4.8 22.5 0.00 0.00 0.00 45 1011.7
20260507184440 16 294 14.5 14.5 0.00 0.00 0.00 42 1011.7
20260507183938 18 261 9.7 19.3 0.00 0.00 0.00 43 1011.7
20260507183434 19 177 4.8 4.8 0.00 0.00 0.00 45 1011.9
20260507182931 18 325 8.0 8.0 0.00 0.00 0.00 47 1011.7
20260507182427 17 270 0.0 11.3 0.00 0.00 0.00 50 1011.8
20260507181923 17 258 3.2 16.1 0.00 0.00 0.00 46 1011.7
20260507181419 18 239 11.3 11.3 0.00 0.00 0.00 54 1011.5
20260507180916 16 319 3.2 6.4 0.00 0.00 0.00 48 1011.7
20260507180413 16 270 6.4 12.9 0.00 0.00 0.00 54 1011.8
20260507175909 17 236 6.4 9.7 0.00 0.00 0.00 54 1011.8
20260507175406 16 248 3.2 9.7 0.00 0.00 0.00 49 1011.6
20260507174903 17 266 9.7 17.7 0.00 0.00 0.00 50 1011.9
20260507174401 16 297 0.0 11.3 0.00 0.00 0.00 50 1011.9
20260507173858 16 303 6.4 8.0 0.00 0.00 0.00 52 1011.8
20260507173355 16 279 0.0 22.5 0.00 0.00 0.00 52 1011.9
20260507172851 17 292 3.2 4.8 0.00 0.00 0.00 49 1011.8
20260507172348 17 248 17.7 24.1 0.00 0.00 0.00 54 1012.0
20260507171844 16 154 1.6 12.9 0.00 0.00 0.00 56 1012.1
20260507171341 16 254 1.6 14.5 0.00 0.00 0.00 58 1012.2
20260507170838 16 254 4.8 12.9 0.00 0.00 0.00 52 1012.5
20260507170334 15 238 6.4 11.3 0.00 0.00 0.00 55 1012.3
20260507165830 16 295 6.4 9.7 0.00 0.00 0.00 57 1012.2
20260507165326 16 272 8.0 8.0 0.00 0.00 0.00 54 1012.5
20260507164822 17 337 3.2 6.4 0.00 0.00 0.00 53 1012.4
20260507164320 17 243 1.6 3.2 0.00 0.00 0.00 62 1012.6
20260507163817 15 285 1.6 6.4 0.00 0.00 0.00 57 1012.5
20260507163315 15 279 0.0 6.4 0.00 0.00 0.00 59 1012.7
20260507162810 16 280 11.3 12.9 0.00 0.00 0.00 56 1012.6
20260507162307 15 308 6.4 6.4 0.00 0.00 0.00 62 1012.6
20260507161804 15 355 3.2 6.4 0.00 0.00 0.00 55 1012.7
20260507161300 15 90 4.8 6.4 0.00 0.00 0.00 54 1012.6
20260507160756 17 200 1.6 4.8 0.00 0.00 0.00 53 1012.8
20260507160252 15 281 6.4 20.9 0.00 0.00 0.00 58 1012.7
20260507155748 15 247 12.9 17.7 0.00 0.00 0.00 53 1012.8
20260507155245 15 261 3.2 3.2 0.00 0.00 0.00 57 1012.8
20260507154741 15 304 0.0 8.0 0.00 0.00 0.00 62 1012.8
20260507154239 17 342 0.0 3.2 0.00 0.00 0.00 56 1012.8
20260507153735 18 0 0.0 3.2 0.00 0.00 0.00 59 1012.6
20260507153232 16 240 0.0 8.0 0.00 0.00 0.00 62 1012.9
20260507152728 15 6 1.6 9.7 0.00 0.00 0.00 61 1012.9
20260507152225 16 334 0.0 11.3 0.00 0.00 0.00 57 1012.8
20260507151721 15 258 6.4 9.7 0.00 0.00 0.00 59 1012.8
20260507151218 15 90 4.8 8.0 0.00 0.00 0.00 58 1012.9
20260507150715 15 270 1.6 4.8 0.00 0.00 0.00 58 1013.2
20260507150211 15 280 3.2 8.0 0.00 0.00 0.00 60 1013.2
20260507145707 15 7 0.0 4.8 0.00 0.00 0.00 64 1012.9
20260507145204 15 279 3.2 6.4 0.00 0.00 0.00 58 1013.2
20260507144701 15 139 3.2 8.0 0.00 0.00 0.00 55 1013.0
20260507144159 15 343 3.2 4.8 0.00 0.00 0.00 58 1013.0
20260507143655 16 0 3.2 4.8 0.00 0.00 0.00 62 1013.0
20260507143152 15 46 6.4 11.3 0.00 0.00 0.00 56 1013.1
20260507142648 15 312 0.0 3.2 0.00 0.00 0.00 61 1013.1
20260507142144 15 8 0.0 8.0 0.00 0.00 0.00 60 1013.2
20260507141641 15 97 1.6 9.7 0.00 0.00 0.00 59 1013.6
20260507141138 15 315 0.0 6.4 0.00 0.00 0.00 62 1013.5
20260507140634 15 45 6.4 6.4 0.00 0.00 0.00 60 1013.2
20260507140132 15 261 4.8 9.7 0.00 0.00 0.00 58 1013.5
20260507135629 15 75 8.0 11.3 0.00 0.00 0.00 60 1013.6
20260507135126 15 209 0.0 4.8 0.00 0.00 0.00 62 1013.5
20260507134622 15 313 4.8 8.0 0.00 0.00 0.00 63 1013.7
20260507134119 15 21 3.2 6.4 0.00 0.00 0.00 65 1013.9
20260507133614 15 270 0.0 4.8 0.00 0.00 0.00 65 1013.7
20260507133112 14 270 0.0 6.4 0.00 0.00 0.00 65 1013.9
20260507132609 14 99 3.2 6.4 0.00 0.00 0.00 68 1013.9
20260507132105 15 270 0.0 3.2 0.00 0.00 0.00 67 1014.0
20260507131602 15 85 0.0 4.8 0.00 0.00 0.00 64 1013.9
20260507131100 15 106 3.2 4.8 0.00 0.00 0.00 68 1013.8
20260507130556 15 90 1.6 4.8 0.00 0.00 0.00 71 1014.0
20260507130054 15 114 0.0 3.2 0.00 0.00 0.00 74 1014.0
20260507125553 14 162 1.6 3.2 0.00 0.00 0.00 76 1013.9
20260507125050 14 209 0.0 3.2 0.00 0.00 0.00 76 1013.9
20260507124546 13 180 0.0 3.2 0.00 0.00 0.00 79 1013.8
20260507124044 13 294 0.0 3.2 0.00 0.00 0.00 77 1013.7
20260507123542 13 99 0.0 4.8 0.00 0.00 0.00 81 1013.9
20260507123038 12 300 0.0 3.2 0.00 0.00 0.00 84 1013.8
20260507122534 11 90 0.0 4.8 0.00 0.00 0.00 85 1013.8
20260507122030 11 69 0.0 4.8 0.00 0.00 0.00 87 1013.9
20260507121526 11 77 3.2 4.8 0.00 0.00 0.00 92 1013.9
20260507121021 10 170 3.2 3.2 0.00 0.00 0.00 96 1014.1
20260507120518 9 90 1.6 4.8 0.00 0.00 0.00 98 1013.9
20260507120015 8 69 1.6 4.8 0.00 0.00 0.00 99 1014.1
20260507115511 7 194 0.0 3.2 0.00 0.00 0.00 99 1014.0
20260507115007 7 270 0.0 4.8 0.00 0.00 0.00 99 1014.1
20260507114503 7 55 4.8 4.8 0.00 0.00 0.00 99 1013.9
20260507114001 7 164 0.0 3.2 0.00 0.00 0.00 99 1013.9
20260507113458 7 262 0.0 1.6 0.00 0.00 0.00 99 1013.9
20260507112955 6 160 0.0 3.2 0.00 0.00 0.00 99 1013.9
20260507112452 6 180 0.0 1.6 0.00 0.00 0.00 99 1013.7
20260507111949 6 90 1.6 3.2 0.00 0.00 0.00 99 1013.5